Weather History for LPPR - April, 2014

Change the Weather History Date:

Sunday, April 13, 2014

  Actual Average Record
Temperature  
Mean Temperature 60 °F -  
Max Temperature 66 °F 64 °F 80 °F (2015)
Min Temperature 53 °F 49 °F 41 °F (1998)
Degree Days  
Heating Degree Days 6    
Growing Degree Days 10 (Base 50)    
Moisture  
Dew Point 56 °F    
Average Humidity 88    
Maximum Humidity 100    
Minimum Humidity 59    
Precipitation  
Precipitation 0.00 in - - ()
Sea Level Pressure  
Sea Level Pressure 30.07 in    
Wind  
Wind Speed 4 mph ()    
Max Wind Speed 9 mph    
Max Gust Speed -    
Visibility 4.4 miles    
Events Fog    
Averages and records for this station are not official NWS values.
T = Trace of Precipitation, MM = Missing Value Source: Averaged Metar Reports

Daily Weather History Graph

Daily Weather History Graph

Search for Another Location

Airport or City:

Trip Planner

Search our weather history database for the weather conditions in past years. The results will help you decide how hot, cold, wet, or windy it might be!

Date:

Astronomy

Apr. 13, 2014 Rise Set
Actual Time 6:58 AM WEST 8:12 PM WEST
Civil Twilight 6:30 AM WEST 8:41 PM WEST
Nautical Twilight 5:56 AM WEST 9:15 PM WEST
Astronomical Twilight 5:20 AM WEST 9:51 PM WEST
Moon 6:36 PM WEST (4/13) 5:51 AM WEST (4/13)
Length of Visible Light 14h 10m
Length of Day
13h 13m
Waxing Gibbous, 96% of the Moon is Illuminated
Apr 13
Waxing Gibbous
Apr 15
Full
Apr 22
Last Quarter
Apr 29
New
May 7
First Quarter

Hourly Weather History & Observations

Time (WEST) Temp. Dew Point Humidity Pressure Visibility Wind Dir Wind Speed Gust Speed Precip Events Conditions
12:00 AM - 54 °F %  in - Calm Calm - -  
12:00 AM 57.2 °F 55.4 °F 94% 30.06 in - South 5.8 mph - N/A   Clear
12:30 AM 57.2 °F 55.4 °F 94% 30.06 in - South 5.8 mph - N/A   Clear
1:00 AM - 54 °F %  in - Calm Calm - -  
1:00 AM 57.2 °F 55.4 °F 94% 30.06 in - SSE 3.5 mph - N/A   Clear
1:30 AM 55.4 °F 53.6 °F 94% 30.09 in 5.6 mi SE 5.8 mph - N/A   Unknown
2:00 AM 57 °F 54 °F 87% 30.10 in - SSE 2.2 mph - -  
2:00 AM 57.2 °F 55.4 °F 94% 30.09 in 5.6 mi SSW 4.6 mph - N/A   Unknown
2:30 AM 57.2 °F 55.4 °F 94% 30.06 in 5.6 mi Variable 1.2 mph - N/A   Unknown
3:00 AM 56 °F 54 °F 89% 30.09 in - SE 2.2 mph - -  
3:00 AM 53.6 °F 51.8 °F 94% 30.06 in 5.0 mi Variable 2.3 mph - N/A   Unknown
3:30 AM 55.4 °F 53.6 °F 94% 30.06 in 3.7 mi Variable 2.3 mph - N/A   Unknown
4:00 AM 56 °F 53 °F 86% 30.08 in - East 4.5 mph - -  
4:00 AM 53.6 °F 51.8 °F 94% 30.06 in 3.7 mi Variable 2.3 mph - N/A   Unknown
4:30 AM 55.4 °F 53.6 °F 94% 30.06 in 3.7 mi Variable 1.2 mph - N/A   Unknown
5:00 AM 56 °F 52 °F 83% 30.07 in - East 6.7 mph - -  
5:00 AM 55.4 °F 53.6 °F 94% 30.04 in 4.3 mi Calm Calm - N/A   Unknown
5:30 AM 53.6 °F 53.6 °F 100% 30.04 in 5.0 mi East 5.8 mph - N/A   Unknown
6:00 AM 56 °F 51 °F 80% 30.07 in - SE 6.7 mph - -  
6:00 AM 55.4 °F 53.6 °F 94% 30.04 in - East 6.9 mph - N/A   Clear
6:30 AM 55.4 °F 53.6 °F 94% 30.06 in - SSW 5.8 mph - N/A   Clear
7:00 AM - 53 °F %  in - Calm Calm - -  
7:00 AM 53.6 °F 51.8 °F 94% 30.06 in 3.7 mi Variable 1.2 mph - N/A   Unknown
7:30 AM 55.4 °F 55.4 °F 100% 30.09 in 0.2 mi South 6.9 mph - N/A Fog Fog
8:00 AM 56 °F 53 °F 87% 30.12 in - South 4.5 mph - -  
8:00 AM 55.4 °F 55.4 °F 100% 30.09 in 0.2 mi South 4.6 mph - N/A Fog Fog
8:30 AM 55.4 °F 55.4 °F 100% 30.09 in 1.1 mi South 3.5 mph - N/A   Mostly Cloudy
9:00 AM 58 °F 56 °F 89% 30.12 in - Calm Calm - -  
9:00 AM 57.2 °F 55.4 °F 94% 30.09 in - Variable 1.2 mph - N/A Fog Fog
9:30 AM 59.0 °F 57.2 °F 94% 30.09 in 3.1 mi Variable 2.3 mph - N/A   Partly Cloudy
10:00 AM 60 °F 55 °F 78% 30.13 in - SW 2.2 mph - -  
10:00 AM 59.0 °F 55.4 °F 88% 30.09 in 2.2 mi West 3.5 mph - N/A Fog Partly Cloudy
10:30 AM 60.8 °F 57.2 °F 88% 30.12 in 3.1 mi West 3.5 mph - N/A   Partly Cloudy
11:00 AM 60 °F 54 °F 74% 30.14 in - SW 4.5 mph - -  
11:00 AM 60.8 °F 57.2 °F 88% 30.12 in 3.1 mi WSW 5.8 mph - N/A   Mist
11:30 AM 62.6 °F 57.2 °F 82% 30.09 in 5.0 mi SSW 4.6 mph - N/A   Unknown
12:00 PM - 55 °F %  in - Calm Calm - -  
12:00 PM 64.4 °F 59.0 °F 83% 30.09 in 4.3 mi West 3.5 mph - N/A   Unknown
12:30 PM 64.4 °F 59.0 °F 83% 30.09 in 5.0 mi West 6.9 mph - N/A   Unknown
1:00 PM - 56 °F %  in - Calm Calm - -  
1:00 PM 64.4 °F 59.0 °F 83% 30.09 in 5.0 mi WSW 5.8 mph - N/A   Unknown
1:30 PM 64.4 °F 57.2 °F 77% 30.09 in - WSW 6.9 mph - N/A   Clear
2:00 PM 64 °F 56 °F 69% 30.10 in - West 6.7 mph - -  
2:00 PM 64.4 °F 59.0 °F 83% 30.09 in - WSW 8.1 mph - N/A   Clear
2:30 PM 62.6 °F 59.0 °F 88% 30.06 in 6.2 mi WNW 6.9 mph - N/A   Partly Cloudy
3:00 PM - 56 °F %  in - Calm Calm - -  
3:00 PM 64.4 °F 59.0 °F 83% 30.06 in 5.6 mi WNW 6.9 mph - N/A   Partly Cloudy
3:30 PM 64.4 °F 59.0 °F 83% 30.06 in 6.2 mi WNW 6.9 mph - N/A   Partly Cloudy
4:00 PM 65 °F 56 °F 66% 30.07 in - WNW 6.7 mph - -  
4:00 PM 64.4 °F 59.0 °F 83% 30.04 in 6.2 mi NW 8.1 mph - N/A   Partly Cloudy
4:30 PM 64.4 °F 57.2 °F 77% 30.04 in 6.2 mi WNW 6.9 mph - N/A   Partly Cloudy
5:00 PM - 56 °F %  in - Calm Calm - -  
5:00 PM 66.2 °F 59.0 °F 78% 30.04 in 6.2 mi NNW 8.1 mph - N/A   Partly Cloudy
5:30 PM 66.2 °F 59.0 °F 78% 30.04 in 6.2 mi NNW 6.9 mph - N/A   Partly Cloudy
6:00 PM 66 °F 55 °F 59% 30.04 in - NW 6.7 mph - -  
6:00 PM 66.2 °F 59.0 °F 78% 30.04 in - NW 5.8 mph - N/A   Clear
6:30 PM 64.4 °F 59.0 °F 83% 30.04 in - West 6.9 mph - N/A   Clear
7:00 PM 62 °F 57 °F 78% 30.06 in - WNW 8.9 mph - -  
7:00 PM 62.6 °F 59.0 °F 88% 30.04 in 5.6 mi WNW 5.8 mph - N/A   Unknown
7:30 PM 60.8 °F 59.0 °F 94% 30.04 in 5.6 mi NNW 4.6 mph - N/A   Unknown
8:00 PM 60 °F 56 °F 81% 30.06 in - WNW 4.5 mph - -  
8:00 PM 60.8 °F 57.2 °F 88% 30.04 in 5.6 mi WNW 3.5 mph - N/A   Unknown
8:30 PM 59.0 °F 57.2 °F 94% 30.04 in 5.0 mi Variable 2.3 mph - N/A   Unknown
9:00 PM 59 °F 56 °F 85% 30.07 in - West 4.5 mph - -  
9:00 PM 59.0 °F 57.2 °F 94% 30.04 in 5.0 mi North 5.8 mph - N/A   Unknown
9:30 PM 59.0 °F 57.2 °F 94% 30.06 in 5.0 mi Variable 2.3 mph - N/A   Unknown
10:00 PM 59 °F 56 °F 85% 30.08 in - West 2.2 mph - -  
10:00 PM 57.2 °F 55.4 °F 94% 30.06 in 4.3 mi Calm Calm - N/A   Unknown
10:30 PM 57.2 °F 55.4 °F 94% 30.06 in 3.7 mi Calm Calm - N/A   Unknown
11:00 PM 58 °F 55 °F 88% 30.08 in - Calm Calm - -  
11:00 PM 55.4 °F 55.4 °F 100% 30.06 in 3.7 mi SW 1.2 mph - N/A   Unknown
11:30 PM 55.4 °F 55.4 °F 100% 30.06 in - Calm Calm - N/A   Mist